period_start,C,m1,H,J0,J1,J2,J3,J4,J5,JA,JB,JC,JD,JJ,JK,JN,#
2018-04-30 00:03:32,0.14,5.25,0.00,25.34,28.61,31.34,13.82,47.70,1016.56,2016.77,1890.09,1968.08,2228.94,599.85,591.05,50.51,0000 0000 0000 0000 000000
2018-04-30 00:08:33,0.05,5.25,0.00,25.33,28.59,31.38,13.87,47.88,1016.55,2016.96,1889.81,1967.99,2228.22,600.14,591.54,50.56,0000 0000 0000 0000 000000
2018-04-30 00:13:35,0.08,5.26,0.00,25.36,28.57,31.31,13.76,47.77,1016.37,2016.99,1889.09,1967.30,2227.94,599.79,590.90,50.61,0000 0000 0000 0000 000000
2018-04-30 00:18:36,0.06,5.26,0.00,25.45,28.56,31.22,13.80,47.72,1016.24,2016.99,1888.43,1966.98,2227.24,599.72,590.66,50.66,0000 0000 0000 0000 000000
2018-04-30 00:23:37,0.10,5.27,0.00,25.52,28.55,31.25,13.74,47.67,1016.15,2016.99,1887.54,1966.28,2226.53,600.02,590.72,50.71,0000 0000 0000 0000 000000
2018-04-30 00:28:39,0.02,5.27,0.00,25.54,28.53,31.24,13.75,47.79,1016.16,2017.00,1887.00,1965.97,2226.01,599.59,590.44,50.76,0000 0000 0000 0000 000000
2018-04-30 00:33:40,0.12,5.27,0.00,25.43,28.52,31.24,13.74,47.70,1016.23,2017.00,1886.04,1965.16,2225.20,600.17,590.99,50.81,0000 0000 0000 0000 000000
2018-04-30 00:38:41,0.05,5.28,0.00,25.43,28.50,31.23,13.78,47.73,1016.26,2017.02,1885.19,1964.94,2224.65,599.98,591.06,50.86,0000 0000 0000 0000 000000
2018-04-30 00:43:42,0.06,5.28,0.00,25.46,28.50,31.23,13.74,47.80,1016.19,2017.04,1884.97,1964.25,2224.09,599.68,590.62,50.91,0000 0000 0000 0000 000000
2018-04-30 00:48:43,0.06,5.28,0.00,25.51,28.49,31.23,13.72,47.64,1016.18,2017.06,1884.18,1963.94,2223.57,599.72,590.54,50.96,0000 0000 0000 0000 000000
2018-04-30 00:53:44,0.14,5.29,0.00,25.49,28.47,31.19,13.77,47.58,1016.18,2017.30,1883.09,1963.15,2222.78,600.12,590.99,51.01,0000 0000 0000 0000 000000
2018-04-30 00:58:46,0.11,5.29,0.00,25.51,28.47,31.20,13.75,47.63,1016.13,2017.50,1882.24,1962.78,2222.03,599.62,590.41,51.06,0000 0000 0000 0000 000000
2018-04-30 01:03:47,0.10,5.30,0.00,25.53,28.47,31.17,13.75,47.52,1016.13,2017.79,1881.66,1962.08,2221.45,600.02,590.74,51.11,0000 0000 0000 0000 000000
2018-04-30 01:08:48,0.05,5.30,0.00,25.52,28.47,31.19,13.74,47.67,1016.13,2017.81,1880.96,1961.71,2220.90,599.86,590.54,51.16,0000 0000 0000 0000 000000
2018-04-30 01:13:49,0.07,5.31,0.00,25.55,28.45,31.19,13.74,47.73,1016.13,2017.82,1880.39,1961.04,2220.17,599.76,590.42,51.21,0000 0000 0000 0000 000000
2018-04-30 01:18:51,0.12,5.31,0.00,25.58,28.45,31.20,13.80,47.65,1016.13,2017.89,1879.51,1960.61,2219.47,600.16,590.68,51.26,0000 0000 0000 0000 000000
2018-04-30 01:23:52,0.01,5.32,0.00,25.64,28.45,31.17,13.68,47.77,1016.14,2017.85,1879.10,1960.02,2219.00,599.64,590.28,51.31,0000 0000 0000 0000 000000
2018-04-30 01:28:53,0.09,5.32,0.00,25.64,28.45,31.19,13.83,47.88,1016.13,2017.92,1878.46,1959.71,2218.39,600.03,590.54,51.36,0000 0000 0000 0000 000000
2018-04-30 01:33:55,0.09,5.32,0.00,25.66,28.45,31.22,13.82,47.85,1016.13,2017.93,1877.57,1959.00,2217.67,600.45,590.85,51.41,0000 0000 0000 0000 000000
2018-04-30 01:38:56,0.09,5.33,0.00,25.71,28.46,31.18,13.84,47.85,1016.13,2017.96,1876.70,1958.29,2216.91,600.00,590.33,51.47,0000 0000 0000 0000 000000
2018-04-30 01:43:58,0.06,5.33,0.00,25.76,28.47,31.21,13.76,47.77,1016.13,2017.96,1875.85,1957.90,2216.14,600.23,590.47,51.52,0000 0000 0000 0000 000000
2018-04-30 01:48:59,0.09,5.34,0.00,25.75,28.47,31.20,13.76,47.69,1016.13,2017.97,1875.14,1957.16,2215.59,599.78,589.97,51.57,0000 0000 0000 0000 000000
2018-04-30 01:54:00,0.08,5.34,0.00,25.80,28.47,31.22,13.71,47.84,1016.13,2017.98,1874.22,1956.72,2214.86,599.86,590.08,51.62,0000 0000 0000 0000 000000
2018-04-30 01:59:01,0.07,5.35,0.00,25.87,28.47,31.23,13.75,47.74,1016.13,2017.97,1873.60,1956.04,2214.11,599.79,589.92,51.67,0000 0000 0000 0000 000000
2018-04-30 02:04:03,0.09,5.35,0.00,25.89,28.49,31.24,13.69,47.73,1016.13,2017.97,1872.76,1955.52,2213.31,599.84,589.83,51.72,0000 0000 0000 0000 000000
2018-04-30 02:09:04,0.08,5.35,0.00,25.90,28.50,31.25,13.80,47.68,1016.13,2017.96,1871.80,1954.93,2212.51,600.15,590.19,51.77,0000 0000 0000 0000 000000
2018-04-30 02:14:06,0.05,5.36,0.00,25.96,28.51,31.27,13.70,47.73,1016.13,2017.90,1871.14,1954.13,2211.90,600.14,589.97,51.82,0000 0000 0000 0000 000000
2018-04-30 02:19:07,0.08,5.36,0.00,26.01,28.52,31.28,13.74,47.68,1016.13,2017.88,1870.50,1953.72,2211.11,599.34,589.08,51.87,0000 0000 0000 0000 000000
2018-04-30 02:24:08,0.10,5.37,0.00,26.02,28.54,31.30,13.73,47.67,1016.13,2017.89,1869.64,1953.03,2210.40,600.06,589.79,51.92,0000 0000 0000 0000 000000
2018-04-30 02:29:10,0.09,5.37,0.00,26.06,28.55,31.32,13.75,47.65,1016.13,2017.74,1868.69,1952.24,2209.54,600.10,589.78,51.97,0000 0000 0000 0000 000000
2018-04-30 02:34:11,0.03,5.37,0.00,26.14,28.57,31.33,13.63,47.66,1016.14,2017.49,1867.95,1951.87,2208.87,599.58,589.13,52.02,0000 0000 0000 0000 000000
2018-04-30 02:39:13,0.08,5.38,0.00,26.17,28.59,31.35,13.77,47.65,1016.13,2017.28,1867.08,1951.04,2207.99,600.06,589.51,52.07,0000 0000 0000 0000 000000
2018-04-30 02:44:14,0.08,5.38,0.00,26.19,28.61,31.39,13.73,47.56,1016.13,2017.15,1866.39,1950.31,2207.20,600.16,589.55,52.12,0000 0000 0000 0000 000000
2018-04-30 02:49:15,0.08,5.38,0.00,26.22,28.63,31.42,13.72,47.53,1016.13,2017.06,1865.51,1949.73,2206.39,600.01,589.39,52.17,0000 0000 0000 0000 000000
2018-04-30 02:54:16,0.09,5.39,0.00,26.29,28.65,31.43,13.77,47.46,1016.14,2017.01,1864.57,1948.99,2205.50,600.57,589.84,52.22,0000 0000 0000 0000 000000
2018-04-30 02:59:17,0.09,5.39,0.00,26.33,28.68,31.46,13.69,47.67,1016.14,2017.01,1863.83,1948.20,2204.75,599.58,588.63,52.27,0000 0000 0000 0000 000000
2018-04-30 03:04:19,0.10,5.40,0.00,26.36,28.70,31.49,13.72,47.61,1016.14,2017.00,1862.89,1947.62,2203.83,599.94,589.03,52.32,0000 0000 0000 0000 000000
2018-04-30 03:09:20,0.07,5.40,0.00,26.37,28.73,31.52,13.68,47.49,1016.14,2017.00,1861.98,1946.96,2203.00,599.80,588.99,52.37,0000 0000 0000 0000 000000
2018-04-30 03:14:21,0.10,5.41,0.00,26.41,28.76,31.55,13.69,47.50,1016.16,2017.00,1861.27,1946.15,2202.23,599.89,588.73,52.43,0000 0000 0000 0000 000000
2018-04-30 03:19:23,0.09,5.41,0.00,26.45,28.78,31.56,13.67,47.61,1016.15,2016.98,1860.59,1945.52,2201.52,599.46,588.33,52.48,0000 0000 0000 0000 000000
2018-04-30 03:24:24,0.05,5.42,0.00,26.47,28.81,31.60,13.68,47.54,1016.14,2016.96,1859.85,1944.92,2200.76,600.03,589.02,52.53,0000 0000 0000 0000 000000
2018-04-30 03:29:26,0.10,5.42,0.00,26.47,28.84,31.64,13.63,47.62,1016.15,2016.87,1858.82,1944.10,2199.82,599.60,588.42,52.58,0000 0000 0000 0000 000000
2018-04-30 03:34:27,0.05,5.43,0.00,26.50,28.86,31.66,13.68,47.73,1016.15,2016.59,1858.00,1943.41,2199.02,600.01,588.89,52.63,0000 0000 0000 0000 000000
2018-04-30 03:39:28,0.03,5.43,0.00,26.55,28.89,31.70,13.68,47.92,1016.14,2016.11,1857.30,1942.84,2198.22,599.87,588.56,52.68,0000 0000 0000 0000 000000
2018-04-30 03:44:30,0.09,5.43,0.00,26.53,28.91,31.71,13.74,47.64,1016.14,2016.02,1856.56,1942.07,2197.50,600.21,589.12,52.73,0000 0000 0000 0000 000000
2018-04-30 03:49:31,0.11,5.43,0.00,26.52,28.94,31.75,13.71,47.72,1016.15,2016.01,1855.62,1941.41,2196.63,599.86,588.67,52.78,0000 0000 0000 0000 000000
2018-04-30 03:54:32,0.09,5.44,0.00,26.54,28.97,31.77,13.74,47.66,1016.14,2016.00,1854.69,1940.56,2195.67,600.31,588.94,52.83,0000 0000 0000 0000 000000
2018-04-30 03:59:34,0.11,5.45,0.00,26.58,28.99,31.80,13.69,47.66,1016.15,2016.00,1853.74,1939.88,2194.74,600.27,588.88,52.88,0000 0000 0000 0000 000000
2018-04-30 04:04:35,0.09,5.45,0.00,26.59,29.01,31.81,13.75,47.52,1016.14,2015.99,1852.96,1939.16,2193.96,599.97,588.67,52.93,0000 0000 0000 0000 000000
2018-04-30 04:09:36,0.08,5.46,0.00,26.60,29.04,31.85,13.70,47.75,1016.14,2015.98,1852.00,1938.43,2193.05,599.67,588.40,52.98,0000 0000 0000 0000 000000
2018-04-30 04:14:37,0.09,5.46,0.00,26.62,29.06,31.87,13.71,47.62,1016.13,2015.96,1851.05,1937.80,2192.16,599.98,588.49,53.03,0000 0000 0000 0000 000000
2018-04-30 04:19:39,0.09,5.46,0.00,26.62,29.09,31.89,13.64,47.67,1016.12,2015.90,1850.41,1937.07,2191.61,599.89,588.49,53.08,0000 0000 0000 0000 000000
2018-04-30 04:24:40,0.02,5.47,0.00,26.59,29.11,31.91,13.66,47.74,1016.13,2015.52,1849.77,1936.53,2190.87,599.72,588.38,53.13,0000 0000 0000 0000 000000
2018-04-30 04:29:41,0.07,5.47,0.00,26.60,29.13,31.92,13.65,47.73,1016.13,2015.23,1848.61,1935.83,2190.01,599.93,588.53,53.18,0000 0000 0000 0000 000000
2018-04-30 04:34:43,0.08,5.48,0.00,26.64,29.15,31.95,13.72,47.62,1016.12,2015.07,1847.77,1935.06,2189.16,600.07,588.62,53.23,0000 0000 0000 0000 000000
2018-04-30 04:39:44,0.10,5.48,0.00,26.67,29.17,31.96,13.65,47.62,1016.13,2015.03,1847.04,1934.36,2188.32,599.37,587.87,53.28,0000 0000 0000 0000 000000
2018-04-30 04:44:45,0.12,5.48,0.00,26.66,29.20,31.99,13.72,47.69,1016.12,2015.01,1845.90,1933.63,2187.44,599.68,588.28,53.33,0000 0000 0000 0000 000000
2018-04-30 04:49:47,0.06,5.49,0.00,26.65,29.21,31.99,13.75,47.56,1016.12,2015.00,1845.05,1933.01,2186.58,599.70,588.24,53.39,0000 0000 0000 0000 000000
2018-04-30 04:54:48,0.10,5.49,0.00,26.69,29.24,32.00,13.76,47.59,1016.11,2015.00,1844.25,1932.26,2185.83,600.08,588.50,53.44,0000 0000 0000 0000 000000
2018-04-30 04:59:49,0.07,5.50,0.00,26.72,29.25,32.02,13.78,47.81,1016.08,2014.99,1843.37,1931.74,2185.06,600.34,588.76,53.49,0000 0000 0000 0000 000000
2018-04-30 05:04:50,0.07,5.50,0.00,26.70,29.27,32.06,13.81,47.68,1015.99,2014.97,1842.65,1931.03,2184.27,600.02,588.49,53.54,0000 0000 0000 0000 000000
2018-04-30 05:09:52,0.08,5.51,0.00,26.69,29.30,32.06,13.78,47.63,1015.81,2014.89,1842.00,1930.32,2183.58,600.26,588.48,53.59,0000 0000 0000 0000 000000
2018-04-30 05:14:53,0.09,5.51,0.00,26.73,29.31,32.08,13.69,47.69,1015.80,2014.56,1841.00,1929.63,2182.64,600.22,588.41,53.64,0000 0000 0000 0000 000000
2018-04-30 05:19:54,0.06,5.52,0.00,26.75,29.33,32.09,13.73,47.60,1015.88,2014.41,1839.79,1928.93,2181.73,600.29,588.45,53.69,0000 0000 0000 0000 000000
2018-04-30 05:24:55,0.05,5.52,0.00,26.72,29.35,32.10,13.73,47.67,1015.79,2014.21,1839.03,1928.16,2180.95,600.65,588.78,53.74,0000 0000 0000 0000 000000
2018-04-30 05:29:57,0.10,5.52,0.00,26.69,29.36,32.12,13.71,47.63,1015.66,2014.16,1837.97,1927.64,2180.06,600.12,588.27,53.79,0000 0000 0000 0000 000000
2018-04-30 05:34:58,0.08,5.53,0.00,26.75,29.38,32.15,13.70,47.65,1015.66,2014.04,1837.12,1926.98,2179.25,600.26,588.29,53.84,0000 0000 0000 0000 000000
2018-04-30 05:39:59,0.09,5.53,0.00,26.78,29.40,32.16,13.74,47.61,1015.66,2014.02,1836.47,1926.28,2178.65,600.10,588.09,53.89,0000 0000 0000 0000 000000
2018-04-30 05:45:00,0.07,5.53,0.00,26.77,29.41,32.16,13.69,47.64,1015.66,2014.00,1835.85,1925.79,2178.08,600.12,588.01,53.94,0000 0000 0000 0000 000000
2018-04-30 05:50:01,0.08,5.54,0.00,26.77,29.42,32.18,13.67,47.71,1015.72,2014.00,1834.94,1925.07,2177.26,599.89,588.09,53.99,0000 0000 0000 0000 000000
2018-04-30 05:55:02,0.11,5.55,0.00,26.82,29.44,32.19,13.68,47.65,1015.72,2014.00,1833.99,1924.26,2176.39,600.19,588.02,54.04,0000 0000 0000 0000 000000
2018-04-30 06:00:04,0.07,5.55,0.00,26.85,29.45,32.19,13.75,47.64,1015.67,2014.00,1833.30,1923.83,2175.78,600.25,588.01,54.09,0000 0000 0000 0000 000000
2018-04-30 06:05:05,0.07,5.55,0.00,26.83,29.46,32.19,13.72,47.61,1015.67,2014.00,1832.47,1923.08,2175.00,600.17,588.14,54.14,0000 0000 0000 0000 000000
2018-04-30 06:10:06,0.14,5.56,0.00,26.84,29.47,32.22,13.64,47.58,1015.72,2013.99,1831.29,1922.40,2174.12,599.93,587.68,54.19,0000 0000 0000 0000 000000
2018-04-30 06:15:07,0.05,5.56,0.00,26.88,29.50,32.23,13.69,47.54,1015.80,2013.99,1830.50,1921.87,2173.48,600.00,587.80,54.24,0000 0000 0000 0000 000000
2018-04-30 06:20:09,0.10,5.57,0.00,26.93,29.51,32.25,13.72,47.60,1015.69,2013.97,1829.77,1921.12,2172.73,600.24,587.92,54.29,0000 0000 0000 0000 000000
2018-04-30 06:25:10,0.10,5.57,0.00,26.91,29.52,32.26,13.67,47.64,1015.70,2013.96,1828.78,1920.49,2171.92,600.12,587.84,54.34,0000 0000 0000 0000 000000
2018-04-30 06:30:11,0.10,5.58,0.00,26.92,29.55,32.27,13.75,47.50,1015.73,2013.96,1827.56,1919.95,2170.93,599.93,587.88,54.40,0000 0000 0000 0000 000000
2018-04-30 06:35:13,0.07,5.58,0.00,26.95,29.56,32.30,13.77,47.44,1015.69,2013.76,1826.83,1919.11,2170.07,600.20,587.81,54.45,0000 0000 0000 0000 000000
2018-04-30 06:40:14,-0.00,5.58,0.00,27.02,29.58,32.30,13.62,47.51,1015.70,2013.28,1826.35,1918.70,2169.54,599.74,587.29,54.50,0000 0000 0000 0000 000000
2018-04-30 06:45:15,0.10,5.59,0.00,27.00,29.60,32.32,13.70,47.57,1015.72,2013.10,1825.39,1917.96,2168.66,600.28,587.82,54.55,0000 0000 0000 0000 000000
2018-04-30 06:50:16,0.10,5.59,0.00,27.02,29.62,32.34,13.73,47.58,1015.66,2013.14,1824.37,1917.16,2167.93,600.28,587.72,54.60,0000 0000 0000 0000 000000
2018-04-30 06:55:17,0.09,5.60,0.00,27.06,29.64,32.36,13.69,47.49,1015.65,2013.04,1823.60,1916.67,2167.04,599.89,587.25,54.65,0000 0000 0000 0000 000000
2018-04-30 07:00:19,0.08,5.60,0.00,27.13,29.66,32.38,13.66,47.52,1015.65,2013.01,1822.68,1916.01,2166.22,600.14,587.39,54.70,0000 0000 0000 0000 000000
2018-04-30 07:05:20,0.07,5.61,0.00,27.17,29.68,32.39,13.73,47.45,1015.65,2013.00,1822.08,1915.40,2165.80,600.07,587.18,54.75,0000 0000 0000 0000 000000
2018-04-30 07:10:21,0.06,5.61,0.00,27.17,29.71,32.40,13.79,47.60,1015.65,2013.00,1821.40,1914.90,2164.97,600.22,587.28,54.80,0000 0000 0000 0000 000000
2018-04-30 07:15:23,0.11,5.62,0.00,27.17,29.73,32.44,13.66,47.60,1015.64,2013.00,1820.66,1914.08,2164.17,599.79,587.21,54.85,0000 0000 0000 0000 000000
2018-04-30 07:20:24,0.10,5.62,0.00,27.15,29.75,32.47,13.70,47.58,1015.64,2012.98,1819.75,1913.49,2163.48,600.36,587.60,54.90,0000 0000 0000 0000 000000
2018-04-30 07:25:25,0.06,5.62,0.00,27.16,29.77,32.48,13.68,47.58,1015.64,2012.94,1819.14,1912.94,2162.81,600.16,587.38,54.95,0000 0000 0000 0000 000000
2018-04-30 07:30:26,0.08,5.63,0.00,27.20,29.79,32.51,13.57,47.60,1015.66,2012.82,1818.15,1912.11,2161.94,599.76,586.96,55.00,0000 0000 0000 0000 000000
2018-04-30 07:35:28,0.13,5.63,0.00,27.20,29.81,32.53,13.60,47.51,1015.68,2012.69,1816.74,1911.42,2160.88,600.05,587.15,55.05,0000 0000 0000 0000 000000
2018-04-30 07:40:29,0.07,5.64,0.00,27.19,29.83,32.55,13.59,47.48,1015.70,2012.53,1815.70,1910.75,2160.00,599.88,587.05,55.10,0000 0000 0000 0000 000000
2018-04-30 07:45:30,0.03,5.64,0.00,27.19,29.85,32.57,13.73,47.53,1015.73,2012.18,1814.91,1910.02,2159.16,600.00,587.22,55.15,0000 0000 0000 0000 000000
2018-04-30 07:50:31,0.10,5.64,0.00,27.18,29.87,32.60,13.75,47.60,1015.70,2012.06,1814.08,1909.45,2158.57,599.95,587.13,55.21,0000 0000 0000 0000 000000
2018-04-30 07:55:33,0.04,5.65,0.00,27.20,29.88,32.61,13.73,47.52,1015.67,2012.03,1813.52,1908.96,2157.91,599.96,587.14,55.26,0000 0000 0000 0000 000000
2018-04-30 08:00:34,0.11,5.65,0.00,27.27,29.90,32.63,13.68,47.45,1015.66,2012.01,1812.71,1908.16,2157.08,600.01,587.03,55.31,0000 0000 0000 0000 000000
2018-04-30 08:05:35,0.11,5.66,0.00,27.26,29.92,32.65,13.71,47.52,1015.67,2012.00,1811.53,1907.66,2156.19,599.94,586.92,55.36,0000 0000 0000 0000 000000
2018-04-30 08:10:36,0.04,5.66,0.00,27.26,29.93,32.67,13.71,47.56,1015.67,2012.00,1810.99,1907.01,2155.78,600.05,587.09,55.41,0000 0000 0000 0000 000000
2018-04-30 08:15:37,0.11,5.67,0.00,27.26,29.95,32.68,13.74,47.57,1015.68,2012.00,1810.34,1906.41,2155.04,600.16,587.20,55.46,0000 0000 0000 0000 000000
2018-04-30 08:20:39,0.08,5.67,0.00,27.26,29.97,32.71,13.76,47.57,1015.68,2011.99,1809.44,1905.91,2154.22,599.99,587.08,55.51,0000 0000 0000 0000 000000
2018-04-30 08:25:40,0.12,5.68,0.00,27.28,29.98,32.72,13.65,47.48,1015.70,2011.99,1808.35,1905.10,2153.31,599.96,586.94,55.56,0000 0000 0000 0000 000000
2018-04-30 08:30:42,0.06,5.68,0.00,27.34,30.00,32.74,13.73,47.43,1015.68,2011.97,1807.60,1904.68,2152.75,600.31,587.21,55.61,0000 0000 0000 0000 000000
2018-04-30 08:35:43,0.06,5.68,0.00,27.35,30.01,32.75,13.70,47.47,1015.67,2011.96,1807.12,1904.05,2152.10,600.15,587.04,55.66,0000 0000 0000 0000 000000
2018-04-30 08:40:44,0.08,5.69,0.00,27.34,30.02,32.77,13.62,47.30,1015.65,2011.93,1806.50,1903.73,2151.58,600.02,586.80,55.71,0000 0000 0000 0000 000000
2018-04-30 08:45:46,0.02,5.69,0.00,27.34,30.05,32.78,13.58,47.37,1015.64,2011.76,1805.73,1903.03,2150.92,599.73,586.55,55.76,0000 0000 0000 0000 000000
2018-04-30 08:50:47,0.10,5.69,0.00,27.35,30.06,32.80,13.55,47.42,1015.66,2011.53,1805.19,1902.46,2150.24,599.94,586.86,55.81,0000 0000 0000 0000 000000
2018-04-30 08:55:49,0.01,5.70,0.00,27.35,30.07,32.81,13.66,47.43,1015.65,2011.23,1804.34,1901.98,2149.54,600.07,586.93,55.86,0000 0000 0000 0000 000000
2018-04-30 09:00:50,0.08,5.70,0.00,27.34,30.09,32.84,13.70,47.50,1015.64,2011.05,1803.57,1901.24,2148.92,600.15,586.90,55.91,0000 0000 0000 0000 000000
2018-04-30 09:05:51,0.06,5.70,0.00,27.40,30.10,32.84,13.69,47.49,1015.65,2011.01,1802.83,1900.81,2148.14,600.25,586.86,55.96,0000 0000 0000 0000 000000
2018-04-30 09:10:53,0.11,5.71,0.00,27.41,30.12,32.86,13.59,47.39,1015.65,2011.01,1801.92,1900.07,2147.40,599.96,586.65,56.01,0000 0000 0000 0000 000000
2018-04-30 09:15:54,0.08,5.71,0.00,27.40,30.12,32.88,13.73,47.40,1015.65,2011.00,1800.96,1899.56,2146.78,600.30,587.02,56.06,0000 0000 0000 0000 000000
2018-04-30 09:20:55,0.07,5.72,0.00,27.42,30.15,32.89,13.68,47.35,1015.66,2011.00,1800.08,1899.00,2145.99,599.85,586.64,56.11,0000 0000 0000 0000 000000
2018-04-30 09:25:57,0.12,5.72,0.00,27.44,30.16,32.91,13.63,47.38,1015.65,2011.00,1799.18,1898.27,2145.13,599.72,586.34,56.17,0000 0000 0000 0000 000000
2018-04-30 09:30:58,0.03,5.72,0.00,27.47,30.17,32.90,13.63,47.33,1015.65,2011.00,1798.83,1897.97,2144.76,599.81,586.43,56.22,0000 0000 0000 0000 000000
2018-04-30 09:35:59,0.12,5.73,0.00,27.50,30.19,32.92,13.65,47.27,1015.64,2011.00,1797.87,1897.15,2143.94,599.92,586.46,56.27,0000 0000 0000 0000 000000
2018-04-30 09:41:01,0.06,5.73,0.00,27.52,30.21,32.94,13.58,47.33,1015.64,2011.00,1797.07,1896.86,2143.16,600.04,586.44,56.32,0000 0000 0000 0000 000000
2018-04-30 09:46:01,0.08,5.74,0.00,27.58,30.22,32.96,13.69,47.34,1015.64,2010.99,1796.69,1896.06,2142.71,600.22,586.78,56.37,0000 0000 0000 0000 000000
2018-04-30 09:51:03,0.08,5.74,0.00,27.61,30.25,32.96,13.66,47.47,1015.64,2010.97,1795.77,1895.58,2141.95,599.88,586.21,56.42,0000 0000 0000 0000 000000
2018-04-30 09:56:04,0.06,5.75,0.00,27.63,30.27,33.00,13.60,47.22,1015.64,2010.94,1795.05,1895.01,2141.17,599.65,586.02,56.47,0000 0000 0000 0000 000000
2018-04-30 10:01:06,0.09,5.75,0.00,27.65,30.29,33.03,13.72,47.34,1015.64,2010.88,1794.39,1894.44,2140.63,600.18,586.45,56.52,0000 0000 0000 0000 000000
2018-04-30 10:06:07,0.00,5.75,0.00,27.65,30.31,33.04,13.63,47.28,1015.64,2010.56,1793.71,1893.97,2139.99,599.78,585.96,56.57,0000 0000 0000 0000 000000
2018-04-30 10:11:08,0.07,5.75,0.00,27.67,30.33,33.05,13.62,47.28,1015.65,2010.24,1792.96,1893.20,2139.22,599.83,585.96,56.62,0000 0000 0000 0000 000000
2018-04-30 10:16:09,0.07,5.76,0.00,27.68,30.36,33.08,13.64,47.33,1015.65,2010.13,1792.14,1892.82,2138.60,600.19,586.41,56.67,0000 0000 0000 0000 000000
2018-04-30 10:21:11,0.06,5.76,0.00,27.69,30.37,33.11,13.59,47.28,1015.65,2010.07,1791.59,1892.07,2137.97,599.92,586.08,56.72,0000 0000 0000 0000 000000
2018-04-30 10:26:12,0.07,5.77,0.00,27.68,30.40,33.14,13.74,47.37,1015.64,2010.01,1790.98,1891.66,2137.15,599.81,586.01,56.77,0000 0000 0000 0000 000000
2018-04-30 10:31:13,0.08,5.77,0.00,27.68,30.42,33.15,13.68,47.20,1015.64,2010.00,1790.20,1891.02,2136.67,599.94,586.13,56.82,0000 0000 0000 0000 000000
2018-04-30 10:36:14,0.08,5.77,0.00,27.72,30.43,33.17,13.77,47.28,1015.64,2010.00,1789.60,1890.45,2136.01,600.32,586.41,56.87,0000 0000 0000 0000 000000
2018-04-30 10:41:16,0.05,5.78,0.00,27.74,30.45,33.18,13.57,47.19,1015.64,2010.00,1788.97,1889.99,2135.40,599.59,585.61,56.92,0000 0000 0000 0000 000000
2018-04-30 10:46:17,0.10,5.78,0.00,27.75,30.47,33.21,13.72,47.33,1015.64,2009.98,1788.14,1889.29,2134.77,600.60,586.52,56.97,0000 0000 0000 0000 000000
2018-04-30 10:51:18,0.06,5.78,0.00,27.76,30.49,33.22,13.67,47.20,1015.64,2009.92,1787.39,1888.87,2134.00,599.89,585.92,57.02,0000 0000 0000 0000 000000
2018-04-30 10:56:19,0.09,5.79,0.00,27.75,30.50,33.25,13.62,47.25,1015.64,2009.78,1786.41,1888.06,2133.13,599.84,585.91,57.08,0000 0000 0000 0000 000000
2018-04-30 11:01:21,0.06,5.79,0.00,27.72,30.52,33.26,13.67,47.27,1015.64,2009.57,1785.57,1887.65,2132.47,600.10,586.28,57.13,0000 0000 0000 0000 000000
2018-04-30 11:06:21,0.06,5.80,0.00,27.73,30.52,33.28,13.51,47.24,1015.57,2009.26,1784.54,1886.98,2131.66,599.68,585.89,57.18,0000 0000 0000 0000 000000
2018-04-30 11:11:23,0.06,5.80,0.00,27.74,30.55,33.29,13.60,47.15,1015.48,2009.27,1783.98,1886.33,2131.02,600.02,586.12,57.23,0000 0000 0000 0000 000000
2018-04-30 11:16:24,0.07,5.81,0.00,27.72,30.55,33.33,13.69,47.23,1015.45,2009.21,1783.14,1885.96,2130.40,600.26,586.17,57.28,0000 0000 0000 0000 000000
2018-04-30 11:21:25,0.08,5.81,0.00,27.74,30.56,33.31,13.67,47.22,1015.31,2009.07,1782.42,1885.25,2129.87,600.10,586.00,57.33,0000 0000 0000 0000 000000
2018-04-30 11:26:27,0.05,5.81,0.00,27.76,30.57,33.32,13.61,47.23,1015.19,2009.02,1781.81,1884.89,2129.06,599.83,585.63,57.38,0000 0000 0000 0000 000000
2018-04-30 11:31:28,0.10,5.82,0.00,27.72,30.57,33.32,13.65,47.30,1015.18,2009.01,1781.02,1884.10,2128.45,599.90,585.75,57.43,0000 0000 0000 0000 000000
2018-04-30 11:36:30,0.06,5.82,0.00,27.71,30.59,33.34,13.68,47.33,1015.17,2009.00,1780.20,1883.84,2127.91,599.72,585.60,57.48,0000 0000 0000 0000 000000
2018-04-30 11:41:31,0.10,5.82,0.00,27.72,30.60,33.34,13.63,47.28,1015.17,2009.00,1779.52,1883.07,2127.10,599.84,585.61,57.53,0000 0000 0000 0000 000000
2018-04-30 11:46:32,0.08,5.83,0.00,27.71,30.60,33.34,13.67,47.32,1015.16,2009.00,1778.79,1882.66,2126.46,599.93,585.82,57.58,0000 0000 0000 0000 000000
2018-04-30 11:51:33,0.05,5.83,0.00,27.69,30.60,33.37,13.61,47.26,1015.15,2009.00,1778.03,1882.03,2125.96,599.74,585.67,57.63,0000 0000 0000 0000 000000
2018-04-30 11:56:35,0.09,5.84,0.00,27.66,30.62,33.37,13.65,47.34,1015.15,2009.00,1777.20,1881.68,2125.15,600.04,586.00,57.68,0000 0000 0000 0000 000000
2018-04-30 12:01:36,0.03,5.84,0.00,27.66,30.62,33.37,13.73,47.42,1015.15,2009.00,1776.94,1881.04,2124.87,600.02,586.04,57.73,0000 0000 0000 0000 000000
2018-04-30 12:06:38,0.07,5.84,0.00,27.66,30.62,33.35,13.63,47.42,1015.15,2009.00,1776.21,1880.81,2124.13,599.90,585.82,57.78,0000 0000 0000 0000 000000
2018-04-30 12:11:39,0.09,5.85,0.00,27.62,30.62,33.37,13.71,47.40,1015.10,2009.00,1775.62,1880.05,2123.66,599.79,585.79,57.83,0000 0000 0000 0000 000000
2018-04-30 12:16:40,0.03,5.85,0.00,27.62,30.62,33.36,13.83,47.33,1015.06,2009.00,1774.95,1879.85,2123.01,600.34,586.30,57.88,0000 0000 0000 0000 000000
2018-04-30 12:21:41,0.11,5.86,0.00,27.60,30.62,33.35,13.69,47.44,1014.79,2009.00,1774.11,1879.08,2122.39,600.17,585.87,57.94,0000 0000 0000 0000 000000
2018-04-30 12:26:42,0.07,5.86,0.00,27.57,30.62,33.35,13.62,47.40,1014.70,2009.00,1773.29,1878.74,2121.88,600.17,586.13,57.99,0000 0000 0000 0000 000000
2018-04-30 12:31:44,0.09,5.86,0.00,27.54,30.62,33.35,13.61,47.27,1014.66,2009.00,1772.61,1878.03,2121.07,599.67,585.61,58.04,0000 0000 0000 0000 000000
2018-04-30 12:36:45,0.07,5.87,0.00,27.57,30.62,33.34,13.56,47.23,1014.67,2009.00,1771.91,1877.67,2120.45,599.55,585.42,58.09,0000 0000 0000 0000 000000
2018-04-30 12:41:46,0.07,5.87,0.00,27.56,30.62,33.32,13.64,47.31,1014.66,2009.00,1771.07,1877.03,2119.97,599.76,585.59,58.14,0000 0000 0000 0000 000000
2018-04-30 12:46:47,0.09,5.87,0.00,27.53,30.61,33.33,13.64,47.27,1014.66,2009.00,1770.57,1876.69,2119.22,599.70,585.65,58.19,0000 0000 0000 0000 000000
2018-04-30 12:51:48,0.04,5.88,0.00,27.51,30.60,33.33,13.67,47.31,1014.66,2009.00,1770.01,1876.04,2118.89,599.86,585.87,58.24,0000 0000 0000 0000 000000
2018-04-30 12:56:49,0.08,5.88,0.00,27.52,30.60,33.31,13.73,47.22,1014.66,2009.00,1769.39,1875.80,2118.14,600.22,586.13,58.29,0000 0000 0000 0000 000000